Weather History for Athens, GA

Change the Weather History Date:

Tuesday, February 5, 2013

  Actual Average Record
Temperature  
Mean Temperature 8 °C 7 °C  
Max Temperature 16 °C 13 °C 25 °C (1927)
Min Temperature -1 °C 2 °C -15 °C (1917)
Degree Days  
Heating Degree Days 19 20  
Month to date heating degree days 118 100  
Since 1 July heating degree days 1587 1857  
Moisture  
Dew Point 3 °C    
Average Humidity 70    
Maximum Humidity 92    
Minimum Humidity 47    
Precipitation  
Precipitation 0.00 mm 3.81 mm 6.73 mm (2010)
Month to date precipitation 0.10 0.78  
Year to date precipitation 5.07 4.83  
Snow  
Snow 0.00 cm 0.25 cm 0.00 cm (2002)
Month to date snowfall 0.0 0.2  
Since 1 July snowfall 0.0 1.7  
Snow Depth -    
Sea Level Pressure  
Sea Level Pressure 1016 hPa    
Wind  
Wind Speed 4 km/h (WSW)    
Max Wind Speed 23 km/h    
Max Gust Speed 32 km/h    
Visibility 15 kilometers    
Events      
T = Trace of Precipitation, MM = Missing Value Source: NWS Daily Summary

Daily Weather History Graph

Daily Weather History Graph

Search for Another Location

Airport:

Trip Planner

Search our weather history database for the weather conditions in past years. The results will help you decide how hot, cold, wet, or windy it might be!

Date:

Astronomy

Feb. 05, 2013 Rise Set
Actual Time 7:26 AM EST 6:08 PM EST
Civil Twilight 7:00 AM EST 6:34 PM EST
Nautical Twilight 6:31 AM EST 7:03 PM EST
Astronomical Twilight 6:01 AM EST 7:33 PM EST
Moon 3:02 AM EST (2/5) 1:29 PM EST (2/5)
Length of Visible Light 11h 33m
Length of Day
10h 41m
Waning Crescent, 27% of the Moon is Illuminated
Feb 5
Waning Crescent
Feb 10
New
Feb 17
First Quarter
Feb 25
Full
Mar 4
Last Quarter

Hourly Weather History & Observations

Time (EST) Temp. Windchill Dew Point Humidity Pressure Visibility Wind Dir Wind Speed Gust Speed Precip Events Conditions
12:51 AM 3.9 °C 2.6 °C -2.2 °C 65% 1016.0 hPa 16.1 km SSW 5.6 km/h / 1.5 m/s - N/A   Clear
1:51 AM 3.3 °C - -1.7 °C 70% 1015.9 hPa 16.1 km Calm Calm - N/A   Clear
2:51 AM 2.8 °C - -1.7 °C 73% 1015.7 hPa 16.1 km Calm Calm - N/A   Clear
3:51 AM 1.1 °C - -1.7 °C 82% 1015.8 hPa 14.5 km Calm Calm - N/A   Clear
4:51 AM 0.6 °C - -1.7 °C 85% 1015.4 hPa 14.5 km Calm Calm - N/A   Clear
5:51 AM 0.0 °C - -1.7 °C 88% 1015.7 hPa 12.9 km Calm Calm - N/A   Clear
6:51 AM 0.0 °C - -1.1 °C 92% 1016.4 hPa 12.9 km Calm Calm - N/A   Overcast
7:51 AM 2.2 °C - -0.6 °C 82% 1016.9 hPa 11.3 km Calm Calm - N/A   Overcast
8:51 AM 5.0 °C - 0.6 °C 73% 1017.3 hPa 12.9 km Calm Calm - N/A   Mostly Cloudy
9:51 AM 7.2 °C 6.4 °C 0.0 °C 60% 1017.3 hPa 14.5 km West 5.6 km/h / 1.5 m/s - N/A   Mostly Cloudy
10:51 AM 10.0 °C - 1.1 °C 54% 1017.4 hPa 14.5 km SW 9.3 km/h / 2.6 m/s - N/A   Overcast
11:51 AM 13.3 °C - 2.2 °C 47% 1017.0 hPa 16.1 km Variable 5.6 km/h / 1.5 m/s - N/A   Overcast
12:51 PM 15.0 °C - 3.9 °C 48% 1016.3 hPa 16.1 km WSW 9.3 km/h / 2.6 m/s - N/A   Overcast
1:51 PM 15.0 °C - 6.1 °C 55% 1015.8 hPa 16.1 km WNW 18.5 km/h / 5.1 m/s 29.6 km/h / 8.2 m/s N/A   Overcast
2:51 PM 15.6 °C - 6.1 °C 53% 1015.5 hPa 16.1 km West 14.8 km/h / 4.1 m/s - N/A   Overcast
3:51 PM 15.6 °C - 6.7 °C 55% 1015.4 hPa 16.1 km Variable 9.3 km/h / 2.6 m/s - N/A   Overcast
4:51 PM 16.1 °C - 6.7 °C 54% 1015.2 hPa 16.1 km SW 9.3 km/h / 2.6 m/s - N/A   Scattered Clouds
5:51 PM 15.0 °C - 6.7 °C 58% 1015.2 hPa 16.1 km West 5.6 km/h / 1.5 m/s - N/A   Mostly Cloudy
6:51 PM 13.3 °C - 7.2 °C 67% 1015.6 hPa 16.1 km Calm Calm - N/A   Overcast
7:51 PM 13.3 °C - 7.2 °C 67% 1016.1 hPa 16.1 km NW 5.6 km/h / 1.5 m/s - N/A   Overcast
8:51 PM 12.0 °C - 7.0 °C 72% 1016.1 hPa 16.1 km Calm Calm - N/A   Overcast
9:51 PM 11.1 °C - 7.2 °C 77% 1016.9 hPa 14.5 km Calm Calm - N/A   Scattered Clouds
10:51 PM 9.4 °C - 6.7 °C 83% 1016.9 hPa 14.5 km Calm Calm - N/A   Clear
11:51 PM 8.9 °C - 6.7 °C 86% 1017.0 hPa 14.5 km Calm Calm - N/A   Partly Cloudy